Location: Buisson
(44.2787°N, 4.9969°E)
Time: 01:38:39
(UTC+00:00)

DELTA 2 R/B (1) - Pass Details

Date: 18 April 2021
Orbit: 790 x 803 km, 39.6° (Epoch: 08 May)

Event Time Altitude Azimuth Distance (km) Brightness Sun altitude
Exits shadow 03:51:53 13° 257° (WSW) 2,129 5.2 -10.7°
Maximum altitude 03:56:39 53° 183° (S) 966 3.9 -10.0°
Drops below altitude 10° 04:02:03 10° 108° (ESE) 2,359 6.8 -9.1°
Sets 04:04:35 0° 103° (ESE) 3,291 7.7 -8.7°
